• In Hungary
  • List of Countries
  • For 7 days
  • Water Temperature
  • Satellite Maps
  • Weather Map
  • News
  • Weather Widgets
  • user-avatar
    Login

    Hourly Weather Salt

    Today, 19 September, Wednesday

    Time Temperature Precipitation Wind Pressure Humidity
    00:00 +21°C° 0 mm 2 mps 755 mmHg 92%
    01:00 +21°C° 0.1 mm 2 mps 755 mmHg 92%
    02:00 +20°C° 0.1 mm 2 mps 755 mmHg 92%
    03:00 +20°C° 0.1 mm 2 mps 755 mmHg 92%
    04:00 +20°C° 0 mm 2 mps 755 mmHg 91%
    05:00 +20°C° 0 mm 3 mps 755 mmHg 91%
    06:00 +20°C° 0 mm 3 mps 755 mmHg 90%
    07:00 +22°C° 0 mm 3 mps 756 mmHg 82%
    08:00 +25°C° 0 mm 3 mps 756 mmHg 74%
    09:00 +27°C° 0 mm 3 mps 756 mmHg 65%
    10:00 +28°C° 0 mm 3 mps 756 mmHg 60%
    11:00 +30°C° 0 mm 3 mps 756 mmHg 54%
    12:00 +31°C° 0 mm 3 mps 756 mmHg 48%
    13:00 +31°C° 0 mm 3 mps 756 mmHg 49%
    14:00 +30°C° 0 mm 3 mps 755 mmHg 51%
    15:00 +30°C° 0 mm 2 mps 755 mmHg 52%
    16:00 +28°C° 0 mm 2 mps 755 mmHg 60%
    17:00 +26°C° 0 mm 2 mps 755 mmHg 68%
    18:00 +25°C° 0 mm 1 mps 755 mmHg 76%
    19:00 +24°C° 0 mm 1 mps 755 mmHg 78%
    20:00 +24°C° 0 mm 1 mps 756 mmHg 80%
    21:00 +23°C° 0 mm 1 mps 756 mmHg 82%
    22:00 +23°C° 0 mm 2 mps 756 mmHg 80%
    23:00 +23°C° 0 mm 2 mps 756 mmHg 78%

    Tomorrow, 20 September, Thursday

    Time Temperature Precipitation Wind Pressure Humidity
    00:00 +23°C° 0 mm 2 mps 756 mmHg 76%
    01:00 +23°C° 0 mm 2 mps 755 mmHg 73%
    02:00 +23°C° 0 mm 2 mps 755 mmHg 70%
    03:00 +21°C° 0 mm 2 mps 755 mmHg 67%
    04:00 +21°C° 0 mm 2 mps 755 mmHg 65%
    05:00 +21°C° 0 mm 2 mps 755 mmHg 63%
    06:00 +21°C° 0 mm 2 mps 755 mmHg 61%
    07:00 +25°C° 0 mm 1 mps 755 mmHg 54%
    08:00 +28°C° 0 mm 1 mps 755 mmHg 47%
    09:00 +31°C° 0 mm 1 mps 756 mmHg 40%
    10:00 +32°C° 0 mm 1 mps 755 mmHg 38%
    11:00 +34°C° 0 mm 2 mps 755 mmHg 36%
    12:00 +34°C° 0 mm 2 mps 755 mmHg 34%
    13:00 +34°C° 0 mm 2 mps 755 mmHg 36%
    14:00 +34°C° 0 mm 3 mps 754 mmHg 38%
    15:00 +33°C° 0 mm 3 mps 754 mmHg 39%
    16:00 +30°C° 0 mm 3 mps 754 mmHg 47%
    17:00 +28°C° 0 mm 2 mps 753 mmHg 54%
    18:00 +26°C° 0 mm 2 mps 753 mmHg 62%
    19:00 +25°C° 0 mm 2 mps 754 mmHg 64%
    20:00 +25°C° 0 mm 2 mps 754 mmHg 65%
    21:00 +24°C° 0 mm 2 mps 754 mmHg 67%
    22:00 +24°C° 0 mm 2 mps 754 mmHg 66%
    23:00 +24°C° 0 mm 2 mps 754 mmHg 65%

    Day after tomorrow, 21 September, Friday

    Time Temperature Precipitation Wind Pressure Humidity
    00:00 +24°C° 0 mm 2 mps 754 mmHg 65%
    01:00 +24°C° 0 mm 2 mps 753 mmHg 64%
    02:00 +24°C° 0 mm 2 mps 753 mmHg 64%
    03:00 +23°C° 0 mm 1 mps 753 mmHg 64%
    04:00 +23°C° 0 mm 2 mps 753 mmHg 64%
    05:00 +23°C° 0 mm 2 mps 753 mmHg 63%
    06:00 +23°C° 0 mm 2 mps 753 mmHg 63%
    07:00 +25°C° 0 mm 2 mps 754 mmHg 56%
    08:00 +28°C° 0 mm 2 mps 754 mmHg 49%
    09:00 +30°C° 0 mm 2 mps 755 mmHg 43%
    10:00 +31°C° 0 mm 2 mps 755 mmHg 40%
    11:00 +33°C° 0 mm 3 mps 755 mmHg 38%
    12:00 +34°C° 0 mm 3 mps 755 mmHg 35%
    13:00 +34°C° 0 mm 3 mps 754 mmHg 38%
    14:00 +32°C° 0 mm 2 mps 754 mmHg 40%
    15:00 +32°C° 0 mm 2 mps 753 mmHg 42%
    16:00 +30°C° 0 mm 2 mps 754 mmHg 49%
    17:00 +28°C° 0 mm 2 mps 754 mmHg 56%
    18:00 +26°C° 0 mm 2 mps 754 mmHg 63%
    19:00 +26°C° 0 mm 2 mps 755 mmHg 65%
    20:00 +25°C° 0 mm 2 mps 755 mmHg 66%
    21:00 +25°C° 0 mm 2 mps 756 mmHg 68%
    22:00 +25°C° 0 mm 2 mps 756 mmHg 69%
    23:00 +24°C° 0 mm 2 mps 756 mmHg 70%

    22 September, Saturday

    Time Temperature Precipitation Wind Pressure Humidity
    00:00 +24°C° 0 mm 2 mps 756 mmHg 71%
    01:00 +24°C° 0 mm 2 mps 756 mmHg 72%
    02:00 +23°C° 0 mm 2 mps 756 mmHg 74%
    03:00 +23°C° 0 mm 2 mps 756 mmHg 76%
    04:00 +23°C° 0 mm 2 mps 756 mmHg 76%
    05:00 +23°C° 0 mm 2 mps 756 mmHg 77%
    06:00 +21°C° 0 mm 2 mps 756 mmHg 78%
    07:00 +25°C° 0 mm 2 mps 757 mmHg 71%
    08:00 +27°C° 0 mm 2 mps 757 mmHg 63%
    09:00 +29°C° 0 mm 2 mps 757 mmHg 56%
    10:00 +30°C° 0 mm 3 mps 757 mmHg 53%
    11:00 +31°C° 0 mm 3 mps 757 mmHg 50%
    12:00 +33°C° 0 mm 3 mps 757 mmHg 47%
    13:00 +31°C° 0 mm 3 mps 756 mmHg 49%
    14:00 +31°C° 0 mm 3 mps 756 mmHg 52%
    15:00 +30°C° 0 mm 3 mps 756 mmHg 54%
    16:00 +29°C° 0 mm 3 mps 756 mmHg 62%
    17:00 +27°C° 0 mm 2 mps 756 mmHg 70%
    18:00 +26°C° 0 mm 2 mps 756 mmHg 79%
    19:00 +25°C° 0 mm 2 mps 756 mmHg 81%
    20:00 +25°C° 0 mm 2 mps 756 mmHg 84%
    21:00 +24°C° 0 mm 2 mps 756 mmHg 87%
    22:00 +24°C° 0 mm 2 mps 756 mmHg 87%
    23:00 +24°C° 0 mm 2 mps 756 mmHg 87%

    23 September, Sunday

    Time Temperature Precipitation Wind Pressure Humidity
    00:00 +23°C° 0 mm 2 mps 756 mmHg 88%
    01:00 +23°C° 0 mm 2 mps 755 mmHg 87%
    02:00 +23°C° 0 mm 2 mps 755 mmHg 86%
    03:00 +23°C° 0 mm 2 mps 754 mmHg 86%
    04:00 +21°C° 0 mm 2 mps 754 mmHg 84%
    05:00 +21°C° 0 mm 2 mps 754 mmHg 82%
    06:00 +21°C° 0 mm 2 mps 753 mmHg 81%
    07:00 +25°C° 0 mm 3 mps 753 mmHg 71%
    08:00 +27°C° 0 mm 3 mps 753 mmHg 61%
    09:00 +30°C° 0 mm 4 mps 753 mmHg 50%
    10:00 +32°C° 0 mm 5 mps 752 mmHg 45%
    11:00 +34°C° 0 mm 6 mps 752 mmHg 40%
    12:00 +36°C° 0 mm 7 mps 752 mmHg 34%
    13:00 +36°C° 0 mm 7 mps 751 mmHg 34%
    14:00 +36°C° 0 mm 7 mps 750 mmHg 33%
    15:00 +37°C° 0 mm 8 mps 750 mmHg 32%
    16:00 +33°C° 0 mm 7 mps 750 mmHg 40%
    17:00 +29°C° 0 mm 7 mps 751 mmHg 48%
    18:00 +27°C° 0 mm 6 mps 751 mmHg 56%
    19:00 +24°C° 0 mm 6 mps 752 mmHg 60%
    20:00 +23°C° 0 mm 6 mps 753 mmHg 64%
    21:00 +22°C° 0 mm 6 mps 753 mmHg 68%
    22:00 +21°C° 0 mm 7 mps 754 mmHg 67%
    23:00 +21°C° 0 mm 7 mps 754 mmHg 66%

    24 September, Monday

    Time Temperature Precipitation Wind Pressure Humidity
    00:00 +21°C° 0 mm 7 mps 754 mmHg 66%
    01:00 +20°C° 0 mm 7 mps 755 mmHg 64%
    02:00 +18°C° 0 mm 8 mps 755 mmHg 62%
    03:00 +18°C° 0 mm 8 mps 755 mmHg 61%
    04:00 +17°C° 0 mm 8 mps 756 mmHg 58%
    05:00 +17°C° 0 mm 9 mps 756 mmHg 56%
    06:00 +16°C° 0 mm 9 mps 757 mmHg 53%
    07:00 +17°C° 0 mm 9 mps 757 mmHg 49%
    08:00 +20°C° 0 mm 8 mps 757 mmHg 44%
    09:00 +21°C° 0 mm 8 mps 758 mmHg 39%
    10:00 +22°C° 0 mm 8 mps 758 mmHg 37%
    11:00 +23°C° 0 mm 8 mps 757 mmHg 34%
    12:00 +24°C° 0 mm 8 mps 757 mmHg 32%
    13:00 +24°C° 0 mm 8 mps 757 mmHg 33%
    14:00 +23°C° 0 mm 8 mps 757 mmHg 35%
    15:00 +23°C° 0 mm 8 mps 757 mmHg 36%
    16:00 +21°C° 0 mm 8 mps 757 mmHg 40%
    17:00 +20°C° 0 mm 8 mps 757 mmHg 43%
    18:00 +17°C° 0 mm 8 mps 757 mmHg 47%
    19:00 +17°C° 0 mm 8 mps 758 mmHg 48%
    20:00 +16°C° 0 mm 9 mps 759 mmHg 48%
    21:00 +15°C° 0 mm 9 mps 759 mmHg 49%
    22:00 +13°C° 0 mm 9 mps 759 mmHg 49%
    23:00 +12°C° 0 mm 9 mps 760 mmHg 49%
    Show more